Weather History for Gastonia, NC

Change the Weather History Date:

Sunday, March 17, 2013

  Actual Average (KCLT) Record (KCLT)
Temperature  
Mean Temperature 62 °F 52 °F  
Max Temperature 77 °F 63 °F 90 °F (1945)
Min Temperature 48 °F 40 °F 23 °F (1900)
Degree Days  
Heating Degree Days 4 14  
Month to date heating degree days 270  
Since 1 July heating degree days 2969  
Cooling Degree Days 0 0  
Month to date cooling degree days 0  
Year to date cooling degree days 0  
Growing Degree Days 12 (Base 50)    
Moisture  
Dew Point 44 °F    
Average Humidity 56    
Maximum Humidity 74    
Minimum Humidity 35    
Precipitation  
Precipitation 0.00 in 0.13 in 2.00 in (1965)
Month to date precipitation 2.29  
Year to date precipitation 9.02  
Snow  
Snow 0.00 in 0.00 in 5.20 in (1885)
Month to date snowfall 0.4  
Since 1 July snowfall 4.1  
Snow Depth -    
Sea Level Pressure  
Sea Level Pressure 29.93 in    
Wind  
Wind Speed 5 mph (ENE)    
Max Wind Speed 16 mph    
Max Gust Speed 24 mph    
Visibility 10 miles    
Events      
T = Trace of Precipitation, MM = Missing Value Source: NWS Daily Summary

Daily Weather History Graph

Daily Weather History Graph

Search for Another Location

Airport:

Trip Planner

Search our weather history database for the weather conditions in past years. The results will help you decide how hot, cold, wet, or windy it might be!

Date:

Astronomy

Mar. 17, 2013 Rise Set
Actual Time 7:32 AM EDT 7:34 PM EDT
Civil Twilight 7:06 AM EDT 7:59 PM EDT
Nautical Twilight 6:37 AM EDT 8:28 PM EDT
Astronomical Twilight 6:07 AM EDT 8:58 PM EDT
Moon 10:55 AM EDT (3/17) 12:29 AM EDT (3/17)
Length of Visible Light 12h 52m
Length of Day
12h 01m
Waxing Crescent, 31% of the Moon is Illuminated
Mar 17
Waxing Crescent
Mar 19
First Quarter
Mar 27
Full
Apr 3
Last Quarter
Apr 10
New

Hourly Weather History & Observations

Time (EDT) Temp. Dew Point Humidity Pressure Visibility Wind Dir Wind Speed Gust Speed Precip Events Conditions
12:54 AM 62.1 °F 39.9 °F 44% 29.86 in 10.0 mi SW 3.5 mph - N/A   Clear
1:54 AM 59.0 °F 39.9 °F 49% 29.87 in 10.0 mi Calm Calm - N/A   Clear
2:54 AM 57.9 °F 39.9 °F 51% 29.88 in 10.0 mi SW 3.5 mph - N/A   Clear
3:54 AM 55.9 °F 39.9 °F 55% 29.88 in 10.0 mi SW 4.6 mph - N/A   Clear
4:54 AM 55.9 °F 39.9 °F 55% 29.87 in 10.0 mi Calm Calm - N/A   Clear
5:54 AM 53.1 °F 41.0 °F 64% 29.89 in 10.0 mi Calm Calm - N/A   Clear
6:54 AM 50.0 °F 41.0 °F 71% 29.90 in 10.0 mi Calm Calm - N/A   Clear
7:54 AM 48.9 °F 41.0 °F 74% 29.92 in 10.0 mi SW 3.5 mph - N/A   Clear
8:54 AM 57.0 °F 43.0 °F 59% 29.93 in 10.0 mi SSW 4.6 mph - N/A   Clear
9:54 AM 60.1 °F 43.0 °F 53% 29.94 in 10.0 mi SSW 8.1 mph - N/A   Clear
10:54 AM 66.0 °F 45.0 °F 47% 29.95 in 10.0 mi West 3.5 mph - N/A   Clear
11:54 AM 70.0 °F 45.0 °F 41% 29.94 in 10.0 mi Calm Calm - N/A   Clear
12:54 PM 73.0 °F 46.0 °F 38% 29.93 in 10.0 mi Calm Calm - N/A   Clear
1:54 PM 75.9 °F 46.9 °F 36% 29.90 in 10.0 mi Calm Calm - N/A   Clear
2:54 PM 75.9 °F 46.0 °F 35% 29.87 in 10.0 mi Variable 6.9 mph - N/A   Mostly Cloudy
3:54 PM 71.1 °F 52.0 °F 51% 29.86 in 10.0 mi ENE 11.5 mph 20.7 mph N/A   Scattered Clouds
4:54 PM 66.9 °F 51.1 °F 57% 29.89 in 10.0 mi NE 13.8 mph - N/A   Mostly Cloudy
5:54 PM 63.0 °F 50.0 °F 63% 29.92 in 10.0 mi ENE 16.1 mph 21.9 mph N/A   Clear
6:54 PM 59.0 °F 48.0 °F 67% 29.94 in 9.0 mi NE 12.7 mph 20.7 mph N/A   Clear
7:54 PM 57.0 °F 45.0 °F 64% 29.97 in 10.0 mi NE 15.0 mph 24.2 mph N/A   Partly Cloudy
8:54 PM 54.0 °F 42.1 °F 64% 30.02 in 10.0 mi NE 15.0 mph - N/A   Mostly Cloudy
9:54 PM 52.0 °F 41.0 °F 66% 30.06 in 10.0 mi NE 13.8 mph 24.2 mph N/A   Overcast
10:54 PM 48.9 °F 39.9 °F 71% 30.08 in 10.0 mi NE 16.1 mph 21.9 mph N/A   Mostly Cloudy
11:54 PM 48.0 °F 39.9 °F 74% 30.09 in 10.0 mi NE 13.8 mph 24.2 mph N/A   Overcast